Weather Service Report


893 
ASUS44 KEWX 051611
RWRTX 
SOUTH TEXAS REGIONAL WEATHER ROUNDUP
NATIONAL WEATHER SERVICE AUSTIN/SAN ANTONIO TX
1000 AM CST MON DEC 05 2016

NOTE: "FAIR" INDICATED FEW OR NO CLOUDS BELOW 12,000 FEET WITH NO
SIGNIFICANT WEATHER AND/OR OBSTRUCTIONS TO VISIBILITY.

* - THESE STATIONS ARE NOT NWS OR FAA STATIONS...AND ARE NOT SUBJECT
    TO NWS AND FAA QUALITY CONTROL.
 
TXZ171-172-183>190-051700-
TEXAS HILL COUNTRY AND EDWARDS PLATEAU
  
CITY           SKY/WX    TMP DP  RH WIND       PRES   REMARKS
JUNCTION       NOT AVBL                                               
*LLANO         CLOUDY    46  46 100 CALM      29.96F FOG              
BURNET         LGT RAIN  46  44  93 N7        29.92F FOG     WCI  42  
*HORSESHOE BAY DRIZZLE   47  47  97 NW7       29.92F WCI  44          
*KERRVILLE     DRIZZLE   46  45  96 N5        29.91F WCI  44          
*FREDERICKSBRG DRIZZLE   46  44  95 NW7       29.91F WCI  42          
*ROCKSPRINGS   NOT AVBL                                               
*BOERNE STAGE  CLOUDY    45  45 100 NW6       29.92S WCI  41          
*CASTROVILLE   CLOUDY    51  50  97 N8        29.93F                  
HONDO          LGT RAIN  51  49  92 N8        29.92R                  
*UVALDE        CLOUDY    50  47  92 CALM      29.94S                  
DEL RIO        CLOUDY    52  48  86 NW6       29.93F                  
LAUGHLIN AFB   PTSUNNY   50  47  90 NW8       29.95R WCI  46          
CARRIZO SPRGS  CLOUDY    52  50  93 NW7       29.94R                  
*EAGLE PASS    CLOUDY    52  48  87 NW9       29.94F                  
$$

TXZ173-191>194-202-209-217>225-228-051700-
CENTRAL AND SOUTH CENTRAL TEXAS
  
CITY           SKY/WX    TMP DP  RH WIND       PRES   REMARKS
GEORGETOWN     LGT RAIN  46  45  93 NW5       29.91S WCI  44          
AUSTIN/BERGSTM LGT RAIN  50  49  96 NW5       29.91R FOG     WCI  48  
AUSTIN/MABRY   LGT RAIN  50  48  93 CALM      29.92R FOG              
*AUSTIN/EXEC   LGT RAIN  48  48 100 NW9       29.91R WCI  44          
*LAGO VISTA    HVY RAIN  47  46  97 N5        29.90S WCI  45          
SAN MARCOS     CLOUDY    48  48 100 NW10      29.91R FOG     WCI  44  
NEW BRAUNFELS  NOT AVBL                                               
RANDOLPH AFB   LGT RAIN  50  50 100 NW8       29.90F WCI  47          
PT SAN ANTONIO DRIZZLE   50  48  93 N8        29.89S WCI  47          
SAN ANTONIO    NOT AVBL                                               
STINSON FIELD  LGT RAIN  51  48  89 NW9       29.90S FOG              
*PLEASANTON    CLOUDY    50  49  95 NW6       29.93R WCI  48          
*LA GRANGE     CLOUDY    51  50  97 N5        29.85F                  
*GIDDINGS      LGT RAIN  48  47  97 N6        29.89F WCI  46          
*GONZALES      CLOUDY    50  50 100 NW7       29.90R FOG     WCI  47  
$$

TXZ163>164-176>182-195>201-210>213-226-227-235-051700-
SOUTHEAST TEXAS
  
CITY           SKY/WX    TMP DP  RH WIND       PRES   REMARKS
COLLEGE STN    LGT RAIN  49  47  93 N12       29.84F WCI  44          
*BRYAN         RAIN     N/A N/A N/A N6        29.89R                  
*CALDWELL      NOT AVBL                                               
*CROCKETT      NOT AVBL                                               
*BRENHAM       CLOUDY    51  50  97 N5        29.87R                  
HUNTSVILLE     CLOUDY    49  46  90 NE8       29.84F WCI  45          
CONROE         CLOUDY    51  49  92 NE3       29.83F                  
HOUSTON BUSH   LGT RAIN  53  50  89 NE9       29.82F                  
HOUSTON HOBBY  CLOUDY    54  53  97 NE10      29.81F                  
*HOUSTON SW AP CLOUDY    53  52  97 NE5       29.82S                  
PEARLAND       CLOUDY    55  52  89 NE8       29.82F                  
HOUSTON HOOKS  CLOUDY    52  50  93 NE9       29.82F                  
ELLINGTON FLD  CLOUDY    55  55 100 NE7       29.82F                  
SUGAR LAND     CLOUDY    53  53 100 NE7       29.81F                  
*HOUSTON EXEC    N/A     52  50  93 NE9       29.83F                  
*CLEVELAND MUN LGT RAIN  51  49  96 CALM      29.84S                  
*WHARTON       CLOUDY    51  50  97 W7        29.86R                  
*COLUMBUS      CLOUDY    50  48  94 NW8       29.86F WCI  47          
*EAGLE LAKE    CLOUDY    53  52  95 NW7       29.85R                  
$$

TXZ214>216-236>238-051700-
THE UPPER TEXAS COAST
  
CITY           SKY/WX    TMP DP  RH WIND       PRES   REMARKS
*ORANGE        RAIN     N/A N/A N/A NE10G16   29.85S                  
PORT ARTHUR    LGT RAIN  51  49  92 N12       29.84R                  
GALVESTON      CLOUDY    54  52  93 NE18      29.82F                  
ANGLETON       CLOUDY    54  52  93 NE6       29.81S                  
*BAY CITY      CLOUDY    55  54  97 W6        29.85R                  
PALACIOS       CLOUDY    52  51  97 W8        29.86R FOG              
$$

TXZ229>234-239>247-051700-
TEXAS COASTAL BEND AND RIO GRANDE PLAINS
  
CITY           SKY/WX    TMP DP  RH WIND       PRES   REMARKS
VICTORIA       RAIN      50  50 100 NW14      29.87S FOG     WCI  45  
*BEEVILLE      CLOUDY    46  46 100 NW14      29.90R WCI  39          
ROCKPORT         N/A    N/A N/A N/A MISG      29.88F                  
*PORT ARANSAS  CLOUDY    52  51  95 NW16G22   29.88S                  
*PORT LAVACA   CLOUDY    51  51  99 NW12      29.89R                  
*INGLESIDE     CLOUDY    54  51  90 NW16G22   29.89R                  
CORPUS CHRISTI CLOUDY    53  51  93 NW17      29.90R                  
CORPUS NAS     CLOUDY    54  50  86 NW18      29.89R                  
*ROBSTOWN      CLOUDY    55  52  92 N18       29.90S                  
ALICE          CLOUDY    55  50  83 N9        29.89S                  
KINGSVILLE NAS PTSUNNY   56  53  90 N15       29.90R                  
COTULLA        CLOUDY    53  49  86 NW10      29.94R                  
*FAITH RANCH   CLOUDY    52  50  93 NW8       29.95R                  
LAREDO         CLOUDY    52  49  89 W13       29.95R                  
$$

TXZ248>255-051700-
DEEP SOUTH TEXAS
  
CITY           SKY/WX    TMP DP  RH WIND       PRES   REMARKS
BROWNSVILLE    LGT RAIN  55  50  83 NW8       29.93R                  
PORT ISABEL    CLOUDY    56  51  84 NW13      29.90R                  
*SOUTH PADRE     N/A     57  52  82 N14       29.90R                  
HARLINGEN      CLOUDY    56  53  90 NW13      29.91R                  
*HEBBRONVILLE  CLOUDY    51  49  92 NW10      29.92R                  
MCALLEN        CLOUDY    59  52  77 W8        29.93R                  
*WESLACO       CLOUDY    56  52  85 N10       29.92S                  
FALFURRIAS     CLOUDY    56  50  81 NW10      29.91S                  
EDINBURG       CLOUDY    58  52  79 NW9       29.92R                  
*ZAPATA        CLOUDY    53  50  89 NW8       29.93R                  
$$

TXZ213>215-236>238-242>244-246-247-251-254-255-051700-
CMAN STATIONS
  
STATION/POSITION TIME  TEMP    WIND        PRES    WAVE
                       AIR SEA DIR/SP/G            HT/PER
                 (UTC) (F)     (DEG/KT/KT) (MB)    (FT/S)
SABINE PASS      1536   51 60   30/ 14/ 18 1010.8
SEA RIM ST PARK  1600   51      20/ 14/ 17 1010.3
NORTH JETTY/GLS  1548   53 62   20/ 20/ 22   N/A
EAGLE POINT      1548   54 59   40/ 12/ 14 1009.7
MORGANS POINT    1548   53 62   50/  8/ 11 1009.5
PORT O'CONNOR    1548   51     270/  9/ 12 1011.5
PORT ARANSAS     1600   52 64  310/ 13/ 16 1011.4
MALAQUITE BEACH  1548   53 64  290/ 10/ 15 1012.5
BAFFIN BAY       1548   53 62  320/ 17/ 20 1012.1
PORT ISABEL      1548   55 73  330/ 10/ 14 1012.6
$$

GMZ080-GMZ150>470-051700-
OFFSHORE BUOY REPORTS
  
STATION/POSITION TIME  TEMP    WIND        PRES    WAVE
                       AIR SEA DIR/SP/G            HT/PER
                 (UTC) (F)     (DEG/KT/KT) (MB)    (FT/S)
20 E GALVESTON   1550   56 67  360/ 17/ 21 1009.4    6/ 6
90 E PT ARANSAS  1550   68 77  340/ 17/ 21 1008.3    7/ 8
35 NE PT MANSFLD 1550   58 76  320/ 16/ 19 1010.9    7/ 8
200 E PT ISABEL  1550   78 79  260/ 14/ 17 1008.4    6/ 7
$$
  

Return to Home page


Western Regional Climate Center, wrcc@dri.edu